Overview Statistics Trail Chart Weather Telemetry Raw packets
 

This is the latest recevied weather packets stored in our database for station/object KD5GAT-51. If no packets are shown the sender has not sent any weather packets the latest 10 day(s).

<< 4 5 6 7 8 9 10 >>
Time Temp. Humidity Pressure Rain* Wind** Luminosity Snow
1788325998 28.89° C 100% 1016.8 hPa - - - -
1788325097 29.44° C 100% 1016.7 hPa - - - -
1788324197 29.44° C 100% 1016.6 hPa - - - -
1788323297 30° C 100% 1016.6 hPa - - - -
1788322397 30° C 100% 1016.5 hPa - - - -
1788321497 30.56° C 100% 1016.4 hPa - - - -
1788320597 30.56° C 100% 1016.3 hPa - - - -
1788319696 31.11° C 100% 1016.2 hPa - - - -
1788318796 31.67° C 98% 1016 hPa - - - -
1788317896 31.67° C 92% 1015.8 hPa - - - -
1788316996 32.22° C 88% 1015.4 hPa - - - -
1788316096 32.78° C 85% 1015.3 hPa - - - -
1788315196 33.33° C 72% 1014.9 hPa - - - -
1788314295 33.33° C 59% 1014.6 hPa - - - -
1788313395 33.33° C 55% 1014.4 hPa - - - -
1788312495 33.33° C 52% 1014.2 hPa - - - -
1788311595 33.89° C 47% 1014.1 hPa - - - -
1788310695 34.44° C 45% 1014 hPa - - - -
1788309795 36.11° C 40% 1014 hPa - - - -
1788308894 37.22° C 38% 1014.1 hPa - - - -
1788307994 37.78° C 36% 1014.1 hPa - - - -
1788307094 38.89° C 34% 1014 hPa - - - -
1788306194 39.44° C 33% 1014 hPa - - - -
1788305294 39.44° C 32% 1014.2 hPa - - - -
1788304393 40° C 32% 1014.1 hPa - - - -

* Rain since midnight (hover to see other rain measurements)
** Current wind speed in m/s (hover to see current wind gust speed)